Location: Napier
(39.4830°S, 176.9170°E)
Time: 03:16:08
(UTC+13:00)

ADEOS Rocket - Pass Details

Date: 24 January 2019
Orbit: 859 x 1306 km, 98.7° (Epoch: 15 February)

Event Time Altitude Azimuth Distance (km) Brightness Sun altitude
Exits shadow 23:05:50 15° 329° (NNW) 2,189 4.6 -23.0°
Maximum altitude 23:09:32 30° 276° (W) 1,525 4.3 -23.4°
Drops below altitude 10° 23:14:21 10° 216° (SW) 2,525 6.3 -23.9°
Sets 23:17:03 0° 204° (SSW) 3,477 7.3 -24.2°
